Location: *
(1.6000°N, 69.2997°E)
Time: 09:03:14
(UTC+00:00)

Daily predictions for brighter satellites

Satellite Brightness Start Highest point End
(mag) Time Altitude Azimuth Time Altitude Azimuth Time Altitude Azimuth
NATO 3D Rocket 3.7 13:38:07 10° WNW 13:43:02 76° NNE 13:49:29 10° ESE
OAO 2 Rocket 3.5 13:42:44 10° NW 13:47:54 65° NE 13:52:57 10° ESE
USA 234 3.4 13:44:39 10° NE 13:50:59 54° SE 13:57:20 10° SSW
Cosmos 2297 4.4 13:46:03 10° N 13:51:11 34° ENE 13:56:20 10° SE
Cosmos 2278 Rocket 3.6 13:46:04 10° NW 13:51:23 43° WSW 13:56:43 10° S
Cosmos 1892 Rocket 3.6 13:47:11 10° N 13:51:37 86° E 13:56:03 10° S
Skynet4D Del rocket 3.8 13:46:49 10° SW 13:52:44 58° SSE 13:58:05 10° ENE
ARIANE 5 DEB (SYLDA) 3.1 13:50:03 10° WNW 13:53:56 37° N 13:55:57 10° ENE
Cosmos 1626 2.7 13:51:42 10° NNE 13:55:04 34° E 13:58:27 10° SSE
Meteor 2-15 Rocket 4.4 13:50:30 10° S 13:56:36 81° E 14:02:39 10° N
Cosmos 2228 4.1 13:54:10 10° SE 13:57:28 22° E 14:00:46 10° NE
Okean-O 2.6 13:53:30 10° SSE 13:57:56 79° ENE 14:02:21 10° N
Cosmos 1140 Rocket 4.1 13:53:19 10° SSE 13:58:00 33° ESE 14:02:39 10° NE
SL-08 ROCKET BODY 4.3 13:52:43 10° N 13:58:37 79° E 14:04:28 10° S
Cosmos 1943 Rocket 3.9 13:57:12 10° NE 13:59:17 12° ENE 14:01:04 11° E
Cosmos 1331 Rocket 4.0 13:56:36 10° NNW 14:01:45 87° E 14:06:57 10° SSE
Cosmos 1386 Rocket 4.5 13:56:51 10° N 14:02:52 89° E 14:09:01 10° S
SL-14 R/B 3.3 14:02:08 10° N 14:05:59 56° E 14:09:48 10° SSE
Cosmos 1709 Rocket 4.2 14:00:15 10° NNE 14:06:04 47° E 14:11:54 10° SSE
Cosmos 1190 Rocket 4.1 14:02:07 10° S 14:07:18 54° ESE 14:12:27 10° NNE
STARLINK-1126 4.4 14:04:20 10° N 14:08:01 32° NE 14:10:51 15° ESE
Cosmos 614 Rocket 4.0 14:03:20 10° SSW 14:08:34 89° WNW 14:13:46 10° NNE
Milstar 3 Cent rocket 3.7 14:02:05 10° NW 14:09:20 79° NNE 14:23:53 13° ESE
CSL-04 Rocket 4.2 14:04:49 10° SE 14:09:38 35° ENE 14:14:24 10° NNE
Ariane H10 3.8 14:07:56 10° W 14:10:49 74° N 14:17:25 14° E
Cosmos 1606 Rocket 4.0 14:07:46 10° SSE 14:11:51 39° E 14:15:58 10° NNE
Cosmos 2369 Rocket 4.0 14:10:26 10° ENE 14:11:36 11° ENE 14:11:36 11° ENE
STARLINK-1082 4.2 14:09:12 10° NNW 14:13:01 37° NE 14:15:39 18° ESE
ARIANE 5 R/B 4.4 14:02:09 10° W 14:16:01 67° N 14:19:25 16° ENE
Cosmos 1340 Rocket 3.9 14:14:41 10° SSE 14:17:56 23° E 14:21:10 10° NE
STARLINK-1100 4.0 14:14:03 10° NNW 14:17:59 43° NE 14:20:25 20° ESE
Meteor 2-10 4.1 14:13:12 10° S 14:18:25 83° W 14:23:49 10° N
TSX-5 4.3 14:18:32 10° NNE 14:21:16 24° ENE 14:21:20 24° ENE
STARLINK-1083 3.8 14:18:55 10° NNW 14:22:55 50° NE 14:25:09 23° ESE
Cosmos 1908 3.4 14:22:25 10° SSE 14:26:06 45° E 14:29:45 10° NNE
STARLINK-1125 3.6 14:23:49 10° NNW 14:27:52 58° NE 14:29:56 27° SE
Ariane H10-3 3.2 14:23:34 10° WNW 14:28:23 48° N 14:31:36 20° ENE
STARLINK-1109 3.5 14:28:45 10° NNW 14:32:50 68° NE 14:34:43 31° SE
Cosmos 1726 3.4 14:30:04 10° SSW 14:33:38 44° W 14:37:11 10° NNW
ATLAS 5 CENTAUR R/B 4.0 14:31:06 10° NNW 14:33:59 15° NNE 14:39:04 10° NE
Cosmos 407 Rocket 4.2 14:29:05 10° SSW 14:34:11 55° WNW 14:39:13 10° N
Cosmos 676 Rocket 4.0 14:31:00 10° S 14:36:14 60° ESE 14:41:26 10° NNE
STARLINK-1091 3.5 14:33:41 10° NNW 14:37:48 80° NE 14:39:29 35° SE
CZ-4 R/B 2.5 14:34:30 10° S 14:38:12 42° WSW 14:41:51 10° NNW
Cosmos 1939 Rocket 3.4 14:34:37 10° S 14:38:35 59° W 14:42:27 10° NNW
GPS 2-12 Rocket1 3.5 14:34:23 10° W 14:39:07 60° NNW 14:41:34 27° NE
Spelda 30 2.5 14:35:24 10° W 14:41:14 66° S 14:41:42 54° SE
STARLINK-1072 3.5 14:38:42 10° NW 14:42:49 85° SW 14:44:23 37° SSE
DMSP B5D2-2 4.5 14:39:05 10° NE 14:43:54 38° ESE 14:48:44 10° S
USA 215 4.0 14:38:05 10° SSE 14:44:23 50° SW 14:50:39 10° NW
SWIFT 4.0 14:43:29 10° SSW 14:46:06 19° S 14:46:06 19° S
STARLINK-1096 3.7 14:43:40 10° NW 14:47:46 73° SW 14:49:09 40° SSE
IRIDIUM 103 4.3 14:43:53 10° NNE 14:48:58 56° E 14:52:55 17° SSE
Delta 2 Rocket 3.8 14:47:24 10° WNW 14:51:46 67° SW 14:53:10 43° SSE
STARLINK-1079 3.9 14:48:40 10° NW 14:52:44 62° WSW 14:53:56 41° S
YAOGAN 1 4.0 14:50:33 10° S 14:54:34 38° WSW 14:58:34 10° NNW
STARLINK-1116 4.2 14:53:42 10° NW 14:57:43 53° SW 14:58:44 41° S
Cosmos 1954 Rocket 4.1 14:53:26 10° SSW 14:58:44 77° WNW 15:03:58 10° N
Cosmos 1992 Rocket 4.4 14:54:14 10° N 14:58:18 43° NE 14:58:18 43° NE
ARIANE 5 R/B 4.2 14:58:12 10° W 14:58:39 15° W 14:58:39 15° W
ARIANE 5 DEB (SYLDA) 4.2 15:02:20 10° WSW 15:03:49 27° SSW 15:03:49 27° SSW
IRIDIUM 106 4.2 15:01:59 10° N 15:07:11 87° W 15:10:56 19° S
Cosmos 2058 Rocket 3.5 15:09:07 10° SSW 15:13:33 63° W 15:18:00 10° N
Cosmos 292 Rocket 3.9 15:08:44 10° NNW 15:12:52 66° NNW 15:12:52 66° NNW
CZ-2C R/B 4.4 15:12:08 10° N 15:16:33 51° WNW 15:20:54 10° SSW
H-2A R/B 3.2 15:23:18 34° N 15:23:18 34° N 15:26:13 10° N
Cosmos 2184 Rocket 3.8 15:19:25 10° N 15:25:25 85° NNE 15:25:25 85° NNE
Ariane Rocket 4.4 15:39:06 33° NW 15:39:06 33° NW 15:41:56 10° NNW
Ariane H10+ 4.3 15:27:28 10° W 15:39:59 63° S 15:40:33 62° SSE
CZ-3A R/B 4.0 15:25:50 10° NW 15:41:38 34° N 15:42:19 33° NNE
Cosmos 1943 Rocket 3.1 15:37:29 10° NW 15:42:41 44° WSW 15:42:41 44° WSW
Ariane H10 3.7 15:33:38 10° W 15:46:23 50° SW 15:46:23 50° SW
ATLAS 3B CENTAUR R/B 3.9 15:44:15 10° WNW 15:46:57 22° W 15:46:57 22° W
Cosmos 2369 Rocket 3.7 15:50:20 10° NNW 15:53:28 31° NW 15:53:28 31° NW
Centaur D AC-28 4.4 16:05:44 10° WNW 16:06:36 18° WNW 16:06:36 18° WNW
Longmarch 3A Rocket 4.5 15:58:32 10° WNW 16:16:53 42° WSW 16:16:53 42° WSW
Ariane H10+ 3.5 22:41:52 76° ESE 22:41:52 76° ESE 23:02:02 10° E
Lacrosse 5 4.2 22:51:08 20° ENE 22:51:08 20° ENE 22:52:52 10° NE
Cosmos 2026 Rocket 4.0 23:15:17 72° ESE 23:15:32 73° E 23:21:37 10° N
Cosmos 1428 Rocket 4.4 23:23:13 51° S 23:24:52 80° E 23:30:58 10° N
ARIANE 5 R/B 4.3 23:34:43 11° ESE 23:34:43 11° ESE 23:34:50 10° ESE
Lacrosse 4 Rocket 2.8 23:35:17 29° SSE 23:36:35 37° ESE 23:40:32 10° NE
Cosmos 1844 Rocket 3.3 23:36:41 15° S 23:41:15 56° ESE 23:46:44 10° NNE
STARLINK-1129 4.4 23:41:41 46° SE 23:42:02 47° SE 23:46:00 10° NE
Cosmos 1689 Rocket 4.3 23:39:54 10° SE 23:42:30 26° E 23:45:05 10° NNE
STARLINK-1134 4.1 23:46:31 51° SSE 23:47:03 56° SE 23:51:05 10° NE
FALCON 9 DEB 4.4 23:47:09 37° NE 23:47:30 39° NE 23:50:44 10° SE
Okean 2 3.5 23:46:50 48° SSE 23:47:54 75° E 23:51:59 10° N
STARLINK-52 4.1 23:50:11 40° NE 23:50:13 40° NE 23:53:15 10° SE
STARLINK-1135 3.8 23:51:18 54° S 23:52:00 66° ESE 23:56:05 10° NE
STARLINK-1162 3.7 23:54:47 55° SSW 23:55:37 76° ESE 23:59:45 10° NE
